User: anonymous   Login
Location: Oshawa
(43.9000°N, 78.8670°W)
Time: 09:13:13
(UTC-04:00)
Language:

Cosmos 839 Rocket - Orbit

View from above orbital plane
View from above orbital plane
View from above satellite
View from above satellite

Ground track
Ground track

The orbit data is extracted from the following two-line orbital elements,

1 09013U 76067B   15083.16013117 -.00000055  00000-0  48534-6 0  9997
2 09013 065.8643 150.8546 0710540 032.1108 349.2693 12.35314761745856
Epoch (UTC): 24 March 2015 03:50:35
Eccentricity: 0.0710540
inclination: 65.8643°
perigee height: 965 km
apogee height: 2088 km
right ascension of ascending node: 150.8546°
argument of perigee: 32.1108°
revolutions per day: 12.35314761
mean anomaly at epoch: 349.2693°
orbit number at epoch: 74585

The dashed part of the orbit path shows where the satellite is in the earth's shadow,  

DLR